GW2801 Weather Reports


Display with metric or nautical units.
time (UTC)temp
F
wind
direction
speed
MPH
gust
MPH
rain 1hr
in
rain 24hr
in
rain mn
in
humidity
%
barometer
mb
20260505112852 60 322 0.0 1.0 0.00 0.08 0.08 90 1007.9
20260505112350 60 301 4.0 4.0 0.00 0.08 0.08 89 1007.6
20260505111845 60 60 1.0 3.0 0.00 0.08 0.08 90 1007.3
20260505111341 60 258 0.0 0.0 0.00 0.08 0.08 92 1007.6
20260505110837 60 254 0.0 1.0 0.00 0.08 0.08 93 1008.4
20260505110334 60 254 0.0 3.0 0.00 0.08 0.08 94 1008.6
20260505101809 59 238 0.0 1.0 0.00 0.07 0.07 93 1007.8
20260505101304 59 242 0.0 0.0 0.00 0.07 0.07 94 1007.4
20260505100801 59 243 1.0 1.0 0.00 0.07 0.07 93 1007.7
20260505100257 59 243 0.0 0.0 0.00 0.07 0.07 93 1007.3
20260505095753 59 243 0.0 0.0 0.00 0.07 0.07 93 1006.8
20260505095246 59 243 0.0 0.0 0.00 0.07 0.07 92 1007.1
20260505094741 59 243 0.0 0.0 0.00 0.07 0.07 92 1006.9
20260505094238 59 243 0.0 0.0 0.00 0.07 0.07 92 1006.9
20260505093734 59 243 0.0 0.0 0.00 0.07 0.07 92 1006.8
20260505093231 59 243 0.0 0.0 0.00 0.07 0.07 92 1006.7
20260505092728 60 243 0.0 0.0 0.00 0.07 0.07 91 1006.7
20260505092227 60 243 1.0 2.0 0.00 0.07 0.07 90 1006.7
20260505091723 60 243 1.0 2.0 0.00 0.07 0.07 89 1005.7
20260505091221 60 161 0.0 3.0 0.07 0.07 0.07 85 1004.8
20260505090719 60 157 4.0 4.0 0.07 0.07 0.07 88 1004.7
20260505090217 60 175 2.0 6.0 0.00 0.06 0.06 91 1005.3
20260505085714 60 138 3.0 4.0 0.00 0.06 0.06 92 1005.9
20260505085212 61 149 2.0 3.0 0.05 0.06 0.06 91 1006.8
20260505084709 61 183 0.0 0.0 0.12 0.06 0.06 92 1007.4
20260505084209 61 184 0.0 0.0 0.12 0.05 0.05 91 1007.9
20260505083705 61 184 1.0 2.0 0.12 0.04 0.04 90 1008.2
20260505083202 61 247 0.0 0.0 0.12 0.03 0.03 89 1008.1
20260505082657 62 247 0.0 0.0 0.05 0.02 0.02 88 1008.0
20260505082155 62 247 0.0 0.0 0.00 0.01 0.01 87 1007.9
20260505081650 62 248 0.0 0.0 0.00 0.01 0.01 86 1007.9
20260505081148 62 247 0.0 1.0 0.07 0.01 0.01 84 1007.6
20260505080645 63 239 0.0 0.0 0.07 0.01 0.01 83 1007.5
20260505080140 63 239 0.0 0.0 0.00 0.00 0.00 80 1007.1
20260505075637 64 216 0.0 0.0 0.00 0.00 0.00 78 1007.3
20260505075134 64 199 0.0 0.0 0.00 0.00 0.00 77 1007.4
20260505074631 64 193 0.0 0.0 0.00 0.00 0.00 74 1007.6
20260505074128 64 50 0.0 0.0 0.00 0.00 0.00 74 1007.4
20260505073626 64 50 0.0 0.0 0.00 0.00 0.00 73 1007.4
20260505073124 64 51 0.0 0.0 0.00 0.00 0.00 74 1007.3
20260505072619 64 51 0.0 0.0 0.00 0.00 0.00 75 1007.4
20260505072116 64 50 0.0 0.0 0.00 0.00 0.00 73 1007.2
20260505071611 64 51 0.0 0.0 0.00 0.00 0.00 73 1007.5
20260505071109 64 51 0.0 0.0 0.00 0.00 0.00 73 1007.4
20260505070606 64 50 0.0 0.0 0.00 0.00 0.00 73 1007.0
20260505065558 64 51 0.0 0.0 0.00 0.00 0.00 75 1007.0
20260505065055 64 50 0.0 0.0 0.00 0.00 0.00 75 1007.1
20260505064552 64 51 0.0 0.0 0.00 0.00 0.00 75 1007.2
20260505064051 64 51 0.0 0.0 0.00 0.00 0.00 74 1007.3
20260505063547 64 51 0.0 0.0 0.00 0.00 0.00 76 1007.6
20260505063043 64 51 0.0 0.0 0.00 0.00 0.00 74 1007.8
20260505062540 64 51 0.0 0.0 0.00 0.00 0.00 74 1007.8
20260505062037 64 51 0.0 0.0 0.00 0.00 0.00 74 1007.7
20260505061535 64 51 0.0 0.0 0.00 0.00 0.00 74 1007.8
20260505061032 64 51 0.0 0.0 0.00 0.00 0.00 73 1007.9
20260505060530 64 51 0.0 0.0 0.00 0.00 0.00 73 1007.9
20260505060026 64 51 0.0 0.0 0.00 0.00 0.00 73 1007.8
20260505055521 64 51 0.0 0.0 0.00 0.00 0.00 73 1007.7
20260505055018 64 50 0.0 0.0 0.00 0.00 0.00 73 1007.8
20260505054516 64 50 0.0 0.0 0.00 0.00 0.00 73 1007.8
20260505054014 64 50 0.0 0.0 0.00 0.00 0.00 73 1007.7
20260505053511 64 50 0.0 0.0 0.00 0.00 0.00 74 1007.9
20260505053008 64 50 0.0 0.0 0.00 0.00 0.00 73 1007.8
20260505052505 64 50 0.0 0.0 0.00 0.00 0.00 73 1007.6
20260505052002 64 5 0.0 0.0 0.00 0.00 0.00 74 1007.6
20260505051458 63 5 0.0 0.0 0.00 0.00 0.00 74 1007.7
20260505050957 63 4 0.0 0.0 0.00 0.00 0.00 74 1007.9
20260505050454 63 4 0.0 0.0 0.00 0.00 0.00 73 1007.8
20260505041422 64 5 0.0 0.0 0.00 0.00 0.00 71 1008.5
20260505040919 64 5 0.0 0.0 0.00 0.00 0.00 70 1008.6
20260505040417 64 5 0.0 0.0 0.00 0.00 0.00 70 1008.6
20260505035913 64 5 0.0 0.0 0.00 0.00 0.00 70 1008.6
20260505035409 65 5 0.0 0.0 0.00 0.00 0.00 70 1008.9
20260505034907 65 5 0.0 0.0 0.00 0.00 0.00 69 1008.9
20260505034403 65 5 0.0 0.0 0.00 0.00 0.00 69 1009.0
20260505033901 65 5 0.0 0.0 0.00 0.00 0.00 68 1009.0
20260505033357 66 4 0.0 0.0 0.00 0.00 0.00 68 1008.9
20260505032855 66 5 0.0 0.0 0.00 0.00 0.00 67 1009.1
20260505032352 66 5 0.0 0.0 0.00 0.00 0.00 67 1009.0
20260505031848 66 5 0.0 0.0 0.00 0.00 0.00 67 1009.2
20260505031345 66 5 0.0 0.0 0.00 0.00 0.00 67 1009.1
20260505030843 67 5 0.0 0.0 0.00 0.00 0.00 66 1009.0
20260505030338 67 5 0.0 0.0 0.00 0.00 0.00 66 1009.0
20260505025834 67 5 0.0 0.0 0.00 0.00 0.00 66 1008.9
20260505025332 67 5 0.0 0.0 0.00 0.00 0.00 66 1008.9
20260505024830 67 5 0.0 0.0 0.00 0.00 0.00 66 1008.9
20260505024327 67 4 0.0 0.0 0.00 0.00 0.00 66 1008.5
20260505023824 67 4 0.0 0.0 0.00 0.00 0.00 66 1008.6
20260505023321 67 4 0.0 0.0 0.00 0.00 0.00 66 1008.5
20260505022819 67 4 0.0 0.0 0.00 0.00 0.00 66 1008.5
20260505022315 67 4 0.0 0.0 0.00 0.00 0.00 65 1008.4
20260505021812 67 13 0.0 0.0 0.00 0.00 0.00 65 1008.3
20260505021309 67 12 0.0 0.0 0.00 0.00 0.00 65 1008.2
20260505020804 67 12 0.0 0.0 0.00 0.00 0.00 65 1008.3
20260505020300 68 11 0.0 0.0 0.00 0.00 0.00 64 1008.2
20260505015757 68 12 0.0 0.0 0.00 0.00 0.00 63 1008.0
20260505015254 68 12 0.0 0.0 0.00 0.00 0.00 63 1008.0
20260505014752 68 12 0.0 0.0 0.00 0.00 0.00 63 1008.0
20260505014249 68 12 0.0 0.0 0.00 0.00 0.00 62 1007.8
20260505013745 69 12 0.0 0.0 0.00 0.00 0.00 61 1007.7
20260505013242 69 12 0.0 0.0 0.00 0.00 0.00 61 1007.7
20260505012740 69 11 0.0 0.0 0.00 0.00 0.00 61 1007.7
20260505012237 69 11 0.0 0.0 0.00 0.00 0.00 60 1007.6
20260505011733 69 12 0.0 0.0 0.00 0.00 0.00 59 1007.5
20260505011231 70 11 0.0 0.0 0.00 0.00 0.00 59 1007.6
20260505010726 70 11 0.0 0.0 0.00 0.00 0.00 58 1007.5
20260505010222 70 12 0.0 0.0 0.00 0.00 0.00 57 1007.6
20260505005719 71 12 0.0 0.0 0.00 0.00 0.00 56 1007.3
20260505005216 71 11 0.0 0.0 0.00 0.00 0.00 56 1007.3
20260505004713 71 11 0.0 0.0 0.00 0.00 0.00 55 1007.2
20260505004209 72 11 0.0 0.0 0.00 0.00 0.00 54 1007.3
20260505003707 72 11 0.0 0.0 0.00 0.00 0.00 53 1007.3
20260505003205 73 11 0.0 0.0 0.00 0.00 0.00 52 1007.3
20260505002700 73 11 0.0 0.0 0.00 0.00 0.00 51 1007.1
20260505002159 73 11 0.0 0.0 0.00 0.00 0.00 52 1007.1
20260505001655 73 122 0.0 1.0 0.00 0.00 0.00 51 1007.1
20260505001153 74 293 0.0 0.0 0.00 0.00 0.00 52 1007.1
20260505000650 74 1 0.0 1.0 0.00 0.00 0.00 51 1007.2
20260505000148 75 3 0.0 0.0 0.00 0.00 0.00 50 1007.3
20260504235643 75 3 1.0 2.0 0.00 0.00 0.00 48 1007.2
20260504235140 75 343 0.0 0.0 0.00 0.00 0.00 48 1007.2
20260504234638 76 343 0.0 1.0 0.00 0.00 0.00 48 1007.0
20260504234135 76 347 1.0 1.0 0.00 0.00 0.00 47 1007.0
20260504233630 76 8 0.0 1.0 0.00 0.00 0.00 47 1007.2
20260504233126 77 243 0.0 0.0 0.00 0.00 0.00 47 1007.0
20260504232625 77 241 0.0 0.0 0.00 0.00 0.00 46 1006.9
20260504232121 77 171 2.0 2.0 0.00 0.00 0.00 44 1006.9
20260504231618 77 63 0.0 1.0 0.00 0.00 0.00 49 1006.9
20260504231114 78 165 0.0 1.0 0.00 0.00 0.00 46 1006.9
20260504230610 78 249 0.0 1.0 0.00 0.00 0.00 45 1007.3
20260504230104 78 305 1.0 1.0 0.00 0.00 0.00 44 1007.0
20260504225601 78 248 1.0 2.0 0.00 0.00 0.00 44 1007.0
20260504225058 78 252 1.0 2.0 0.00 0.00 0.00 44 1007.1
20260504224554 78 304 0.0 3.0 0.00 0.00 0.00 45 1007.0
20260504224051 78 32 1.0 3.0 0.00 0.00 0.00 44 1007.1
20260504223548 78 282 3.0 3.0 0.00 0.00 0.00 43 1007.1
20260504223044 78 243 0.0 2.0 0.00 0.00 0.00 45 1007.4
20260504222541 78 294 0.0 1.0 0.00 0.00 0.00 46 1007.0
20260504222038 79 227 1.0 1.0 0.00 0.00 0.00 45 1007.0
20260504221536 79 338 2.0 2.0 0.00 0.00 0.00 42 1007.2
20260504221032 79 78 2.0 3.0 0.00 0.00 0.00 41 1007.1
20260504220529 79 269 1.0 2.0 0.00 0.00 0.00 42 1007.2
20260504220027 79 244 1.0 1.0 0.00 0.00 0.00 44 1007.1
20260504215523 79 319 0.0 0.0 0.00 0.00 0.00 45 1007.2
20260504215020 79 2 0.0 1.0 0.00 0.00 0.00 42 1007.1
20260504214516 79 228 0.0 1.0 0.00 0.00 0.00 42 1007.0
20260504214012 79 248 0.0 1.0 0.00 0.00 0.00 44 1007.4
20260504213508 79 307 0.0 0.0 0.00 0.00 0.00 47 1007.4
20260504213006 79 339 2.0 2.0 0.00 0.00 0.00 45 1007.5
20260504212501 79 196 0.0 2.0 0.00 0.00 0.00 42 1007.6
20260504211959 80 255 2.0 4.0 0.00 0.00 0.00 44 1007.5
20260504211455 80 41 1.0 2.0 0.00 0.00 0.00 43 1007.4
20260504210954 80 250 1.0 2.0 0.00 0.00 0.00 40 1007.5
20260504210450 80 37 1.0 1.0 0.00 0.00 0.00 43 1007.6
20260504205947 80 223 1.0 2.0 0.00 0.00 0.00 43 1007.7
20260504205444 80 318 0.0 4.0 0.00 0.00 0.00 42 1007.7
20260504204943 80 255 0.0 2.0 0.00 0.00 0.00 41 1007.8
20260504204440 80 248 0.0 0.0 0.00 0.00 0.00 43 1007.8
20260504203939 80 7 1.0 2.0 0.00 0.00 0.00 42 1008.1
20260504203437 80 72 0.0 2.0 0.00 0.00 0.00 42 1008.1
20260504202932 80 302 1.0 2.0 0.00 0.00 0.00 41 1008.1
20260504202429 80 269 2.0 2.0 0.00 0.00 0.00 43 1008.1
20260504201926 80 20 3.0 4.0 0.00 0.00 0.00 42 1008.3
20260504201423 80 349 1.0 1.0 0.00 0.00 0.00 43 1008.3
20260504200920 80 289 0.0 2.0 0.00 0.00 0.00 44 1008.4
20260504200417 80 299 3.0 3.0 0.00 0.00 0.00 42 1008.4
20260504195914 80 297 2.0 3.0 0.00 0.00 0.00 44 1008.2
20260504195409 80 29 0.0 2.0 0.00 0.00 0.00 44 1008.5
20260504194906 80 171 2.0 2.0 0.00 0.00 0.00 44 1008.4
20260504194402 80 344 0.0 2.0 0.00 0.00 0.00 44 1008.6
20260504193858 80 321 2.0 3.0 0.00 0.00 0.00 42 1008.9
20260504193355 80 207 2.0 4.0 0.00 0.00 0.00 42 1008.4
20260504192854 80 355 1.0 2.0 0.00 0.00 0.00 47 1008.6
20260504192352 80 295 1.0 3.0 0.00 0.00 0.00 45 1008.6
20260504191850 80 353 1.0 2.0 0.00 0.00 0.00 42 1008.7
20260504191348 81 261 0.0 4.0 0.00 0.00 0.00 41 1009.0
20260504190843 81 196 2.0 2.0 0.00 0.00 0.00 39 1008.7
20260504190339 82 152 2.0 2.0 0.00 0.00 0.00 42 1009.0
20260504185836 81 153 0.0 1.0 0.00 0.00 0.00 45 1008.9
20260504185333 81 288 1.0 1.0 0.00 0.00 0.00 42 1008.9
20260504184829 81 300 2.0 2.0 0.00 0.00 0.00 40 1008.7
20260504184325 81 249 0.0 2.0 0.00 0.00 0.00 45 1008.5
20260504183820 81 196 2.0 3.0 0.00 0.00 0.00 41 1008.7
20260504183318 81 275 1.0 3.0 0.00 0.00 0.00 44 1008.9
20260504182816 81 274 2.0 2.0 0.00 0.00 0.00 43 1009.0
20260504182313 80 281 0.0 2.0 0.00 0.00 0.00 46 1008.9
20260504181810 81 281 3.0 3.0 0.00 0.00 0.00 40 1008.9
20260504181307 81 281 0.0 2.0 0.00 0.00 0.00 44 1008.7
20260504180807 81 15 3.0 4.0 0.00 0.00 0.00 42 1008.9
20260504180304 81 188 1.0 2.0 0.00 0.00 0.00 46 1008.9
20260504175802 81 239 2.0 2.0 0.00 0.00 0.00 46 1008.9
20260504175258 80 323 0.0 6.0 0.00 0.00 0.00 42 1008.9
20260504174757 80 278 4.0 6.0 0.00 0.00 0.00 45 1009.1
20260504174254 80 293 2.0 3.0 0.00 0.00 0.00 45 1009.3
20260504173750 81 253 2.0 3.0 0.00 0.00 0.00 41 1009.1
20260504173247 80 249 0.0 1.0 0.00 0.00 0.00 46 1009.0
20260504172744 79 212 0.0 2.0 0.00 0.00 0.00 43 1009.1
20260504172241 79 281 4.0 4.0 0.00 0.00 0.00 41 1009.1
20260504171737 79 170 2.0 3.0 0.00 0.00 0.00 42 1009.3
20260504171234 78 236 1.0 2.0 0.00 0.00 0.00 43 1009.3
20260504170731 79 243 0.0 3.0 0.00 0.00 0.00 45 1009.4
20260504170228 79 14 0.0 2.0 0.00 0.00 0.00 45 1009.4
20260504160147 75 296 1.0 2.0 0.00 0.00 0.00 46 1010.0
20260504151114 72 284 0.0 2.0 0.00 0.00 0.00 47 1010.2
20260504150612 72 284 2.0 3.0 0.00 0.00 0.00 49 1010.3
20260504150109 71 299 4.0 6.0 0.00 0.00 0.00 47 1010.5
20260504141032 68 268 4.0 6.0 0.00 0.00 0.00 50 1011.0
20260504140528 68 206 1.0 2.0 0.00 0.00 0.00 54 1011.2
20260504130453 63 289 0.0 1.0 0.00 0.00 0.00 62 1011.2